Regional Weather Roundup
Issued by NWS Jackson, KY

Home | Current Version | Previous Version | Text Only | Print | Product List | Glossary Off
Versions: 1 2 3 4 5 6 7 8 9 10 11 12 13 14 15 16 17 18 19 20 21 22 23 24 25 26 27 28 29 30 31 32 33 34 35 36 37 38 39 40 41 42 43 44 45 46 47 48 49 50

288
ASUS43 KJKL 191610
RWRJKL

EAST KENTUCKY HOURLY WEATHER ROUNDUP
NATIONAL WEATHER SERVICE JACKSON KY
1100 AM EST SUN FEB 19 2017

NOTE: "FAIR" INDICATES FEW OR NO CLOUDS BELOW 12,000 FEET WITH
NO SIGNIFICANT WEATHER AND/OR OBSTRUCTIONS TO VISIBILITY.

* THESE REPORTS ARE NOT UNDER NWS QUALITY CONTROL AND MAY NOT
  REPORT WEATHER SUCH AS PRECIPITATION AND FOG.

KYZ079-080-083-085-087-088-110-112-115-119-120-191700
...EASTERN KENTUCKY...

CITY           SKY/WX    TMP DP  RH WIND       PRES   REMARKS
JACKSON        CLOUDY    49  45  86 VRB5      30.13R
LONDON         CLOUDY    52  45  77 VRB5      30.14R
SOMERSET*      CLOUDY    50  43  76 W3        30.16R
MONTICELLO*    MOSUNNY   55  47  74 VRB7      30.16S
WILLIAMSBURG*  CLOUDY    52  50  93 W3        30.14R
MIDDLESBORO*   CLOUDY    53  49  87 CALM      30.14S
HARLAN APT*    CLOUDY    52  45  76 S5        30.13S
PIKE CO APT*   CLOUDY    50  48  93 W5        30.11R
BIG SANDY APT* CLOUDY    51  48  89 W5        30.12R
MOREHEAD APT*  PTSUNNY   50  45  81 W5        30.14R
ASHLAND*       CLOUDY    52  46  82 W8        30.10R
$$

KYZ035-036-041-042-044-050-067-078-099-191700
...CENTRAL KENTUCKY...

CITY           SKY/WX    TMP DP  RH WIND       PRES   REMARKS
MT STERLING*   CLOUDY    50  45  81 W7        30.15R
FLEMING/MASON* CLOUDY    49  47  92 W9        30.13R
DANVILLE*      CLOUDY    54  46  76 W8        30.14R
LEXINGTON      CLOUDY    51  47  86 SW5       30.13R FOG
FRANKFORT      CLOUDY    52  47  83 SW5       30.11R
LOUISVILLE     CLOUDY    55  49  80 VRB3      30.11S
LEBANON*       CLOUDY    54  50  87 S7        30.13S
GLASGOW*       CLOUDY    57  49  74 S3        30.13S
BOWLING GREEN  CLOUDY    55  51  86 S3        30.14R
$$

KYZ091>093-OHZ055-061-077-WVZ005-015-034-035-042-191700
...SOUTHERN OHIO/WEST VIRGINIA...

CITY           SKY/WX    TMP DP  RH WIND       PRES   REMARKS
COVINGTON      CLOUDY    50  46  86 W8        30.10R
COLUMBUS       CLOUDY    50  44  80 W7        30.06R
DAYTON         CLOUDY    47  44  90 W9        30.09R FOG
WILMINGTON     CLOUDY    47  45  93 SW12      30.08R FOG
HUNTINGTON     CLOUDY    50  45  83 W6        30.10R
CHARLESTON     CLOUDY    50  47  89 W7        30.09R
PINEVILLE*     CLOUDY    49  45  86 MISG      30.15R
BECKLEY        CLOUDY    45  43  93 NW8       30.07S FOG
BLUEFIELD      CLOUDY    43  42  97 NW9       30.09R FOG
LOGAN CO APT*  CLOUDY    48  48 100 CALM      30.10R FOG
$$

VAZ002-007-008-TNZ017-027-036-066-071-191700
...SOUTHWEST VIRGINIA/EAST TENNESSEE...

CITY           SKY/WX    TMP DP  RH WIND       PRES   REMARKS
WISE*          CLOUDY    48  48 100 CALM      30.12R
JONESVILLE*    CLOUDY    52  48  87 NW3       30.16R
ABINGDON*      CLOUDY    50  46  86 NW5       30.11R
BRISTOL        CLOUDY    53  47  79 NW8       30.13R
MORRISTOWN*    CLOUDY    54  48  82 CALM      30.13S
SEVIERVILLE*   CLOUDY    52  48  87 CALM      30.14R
KNOXVILLE      CLOUDY    54  49  83 SE3       30.14R
LAFOLLETTE*    CLOUDY    55  48  76 VRB3      30.17S
OAK RIDGE      PTSUNNY   57  50  77 CALM      30.15S
CROSSVILLE     CLOUDY    52  45  77 N8        30.15R
NASHVILLE      CLOUDY    57  50  77 CALM      30.15R
$$

...KEY TO REMARKS...
VSB - VISIBILITY IN MILES
WCI - WIND CHILL INDEX
HX  - HEAT INDEX

$$




USA.gov is the U.S. government's official web portal to all federal, state and local government web resources and services.